Regional Weather Roundup
Issued by NWS

Home | Current Version | Previous Version | Text Only | Print | Product List | Glossary Off
Versions: 1 2 3 4 5 6 7 8 9 10 11 12 13 14 15 16 17 18 19 20 21 22 23 24 25 26 27 28 29 30 31 32 33 34 35 36 37 38 39 40 41 42 43 44 45 46 47 48 49 50

000
ASUS43 KDMX 020007
RWRIA

WEATHER ROUNDUP FOR IOWA
NATIONAL WEATHER SERVICE DES MOINES IA
700 PM CDT MON JUN 01 2015

NOTE: "FAIR" INDICATES FEW OR NO CLOUDS BELOW 12,000 FEET WITH NO
SIGNIFICANT WEATHER AND/OR OBSTRUCTIONS TO VISIBILITY.

* - THESE STATIONS ARE NOT NWS STATIONS...THUS NOT UNDER NWS
QUALITY CONTROL.  THEY ALSO DO NOT REPORT WEATHER SUCH
AS PRECIPITATION OR FOG.

IAZ001>003-012>014-020>022-031>034-043>046-020100-
   NORTHWEST IOWA

CITY           SKY/WX    TMP DP  RH WIND       PRES   REMARKS
CARROLL *      SUNNY     72  46  40 SE14      30.09F
CHEROKEE *     SUNNY     73  46  38 S12G18    30.07S
DENISON *      SUNNY     72  50  46 SE10G17   30.06S
LE MARS *      SUNNY     75  50  41 S17       30.05S
ORANGE CITY *  SUNNY     73  48  40 S13       30.05S
SHELDON *      SUNNY     75  45  33 S14       30.05S
SIOUX CITY     SUNNY     76  48  37 S14       30.04F
6HR MIN TEMP:  72; 6HR MAX TEMP:  78;

SPENCER        SUNNY     74  46  36 S14       30.08S
6HR MIN TEMP:  71; 6HR MAX TEMP:  75;

$$

IAZ055>058-069>071-079>083-090>094-020100-
   SOUTHWEST IOWA

CITY           SKY/WX    TMP DP  RH WIND       PRES   REMARKS
ATLANTIC *     SUNNY     72  48  43 SE13      30.09F
AUDUBON *      SUNNY     70  46  43 SE8       30.11S
CLARINDA *     SUNNY     72  52  49 SE8       30.11S
COUNCIL BLFS * SUNNY     72  54  53 S13       30.08S
CRESTON *      SUNNY     68  50  52 SE7G16    30.11S
HARLAN  *      SUNNY     72  50  46 S12G17    30.11F
LAMONI         MOSUNNY   70  54  56 SE9       30.12S
6HR MIN TEMP:  68; 6HR MAX TEMP:  74;

RED OAK *      SUNNY     72  52  49 SE9       30.09S
SHENANDOAH *   SUNNY     73  52  46 SE8G15    30.09S
$$

IAZ047>049-059>061-072>074-084-020100-
   CENTRAL IOWA

CITY           SKY/WX    TMP DP  RH WIND       PRES   REMARKS
AMES           SUNNY     70  44  39 SE9       30.11S
6HR MIN TEMP:  67; 6HR MAX TEMP:  73;

ANKENY *       SUNNY     70  48  46 SE6G14    30.11S
CHARITON *     SUNNY     66  55  68 SE13      30.13F
DES MOINES     MOSUNNY   71  46  40 S9        30.11F
6HR MIN TEMP:  68; 6HR MAX TEMP:  73;

GRINNELL*      MOSUNNY   70  52  52 SE10      30.14S
KNOXVILLE *    SUNNY     68  54  60 SE13      30.12S
MARSHALLTOWN   MOSUNNY   69  50  50 SE10      30.12S
6HR MIN TEMP:  66; 6HR MAX TEMP:  70;

PELLA *        MOSUNNY   69  57  65 SE9       30.14S
PERRY *          N/A     71  40  32 S12       30.11S
$$

IAZ004>006-015-016-023>025-035-036-020100-
   NORTH CENTRAL IOWA

CITY           SKY/WX    TMP DP  RH WIND       PRES   REMARKS
ALGONA *       SUNNY     72 -35   1 SE10      30.11S
CLARION *      SUNNY     72  32  23 SE12G17   30.12S
ESTHERVILLE    MOSUNNY   70  42  36 SE16      30.09S
6HR MIN TEMP:  67; 6HR MAX TEMP:  72;

FORT DODGE *   SUNNY     72  43  35 S8        30.12S
MASON CITY     SUNNY     69  40  34 S9        30.15S
6HR MIN TEMP:  66; 6HR MAX TEMP:  72;

FOREST CITY *  SUNNY     63  39  42 SE6       30.13S
IOWA FALLS *     N/A     70  37  30 SE8       30.14S
$$

IAZ007>011-017>019-026>030-037>042-050>054-066-020100-
   NORTHEAST IOWA

CITY           SKY/WX    TMP DP  RH WIND       PRES   REMARKS
CEDAR RAPIDS   SUNNY     68  46  45 SE6       30.14S
6HR MIN TEMP:  65; 6HR MAX TEMP:  71;

CHARLES CITY * SUNNY     70  37  30 SE10      30.15F
CLINTON *      SUNNY     66  45  45 NE7       30.19R
DECORAH *      SUNNY     66  39  37 E7        30.16S
DUBUQUE        SUNNY     66  39  37 E8        30.17S
6HR MIN TEMP:  64; 6HR MAX TEMP:  68;

MONTICELLO *   SUNNY     68  41  37 E8        30.16S
OELWEIN *      SUNNY     70  32  24 SE9       30.16S
WATERLOO       MOSUNNY   69  42  37 SE9       30.13F
6HR MIN TEMP:  65; 6HR MAX TEMP:  71;

$$

IAZ064-065-067-068-078-020100-
   EAST CENTRAL IOWA

CITY           SKY/WX    TMP DP  RH WIND       PRES   REMARKS
DAVENPORT      SUNNY     69  47  45 SE6       30.16S
6HR MIN TEMP:  66; 6HR MAX TEMP:  71;

IOWA CITY      PTSUNNY   69  50  50 SE7       30.15S
6HR MIN TEMP:  66; 6HR MAX TEMP:  71;

MT. PLEASANT * CLOUDY    66  53  62 SE6       30.15S
MUSCATINE *    CLOUDY    70  50  49 CALM      30.15S
QUAD CITIES    CLOUDY    68  50  52 E5        30.14S
6HR MIN TEMP:  66; 6HR MAX TEMP:  72;

$$

IAZ062-063-075>077-085>089-095>099-020100-
   SOUTHEAST IOWA

CITY           SKY/WX    TMP DP  RH WIND       PRES   REMARKS
BURLINGTON     CLOUDY    67  54  63 SE5       30.15S
6HR MIN TEMP:  67; 6HR MAX TEMP:  70;

FAIRFIELD *    CLOUDY    68  52  56 SE9       30.14S
FORT MADISON *   N/A     64  55  72 SE5       30.16S
KEOKUK *       CLOUDY    66  55  68 SE8       30.15R
OSKALOOSA *    CLOUDY    68  50  53 S6        30.14S
CENTERVILLE *  MOSUNNY   64  64 100 SE7       30.16S
OTTUMWA        CLOUDY    66  54  65 SE5       30.13F
6HR MIN TEMP:  65; 6HR MAX TEMP:  70;

WASHINGTON *   CLOUDY    70  50  49 SE8       30.16S
$$

ABBREVIATIONS USED IN REMARKS
   TC - TEMPERATURES IN CELSIUS
  WCI - WIND CHILL INDEX
   HX - HEAT INDEX
  VSB - VISIBILITY
$$




USA.gov is the U.S. government's official web portal to all federal, state and local government web resources and services.